Back to catalog

SL-12 R/B(2)

AliveGEO
NORAD 24438·ROCKET BODY·🇷🇺 Russia

Launched Sep 26, 1996 from Baikonur Cosmodrome

Loading…

TLE

FreshSource: Space-Track

Epoch: Aug 29, 2026, 19:41 UTC

1 24438U 96058D   26241.82034544  .00000117  00000-0  00000+0 0  9992
2 24438  14.3555 350.4936 0007467 137.8241 187.6587  1.00322047109579

Track SL-12 R/B(2) in real time with AllMySat

Download on the App Store